This demonstration page uses our WeatherBlox Daily Observations layout. Learn more.

40.92945, -100.16068

Hourly Observations for January 31, 2019

Temp ( °F °C ) Dew Point ( °F °C ) Humidity (%) Winds ( mph kmh ) Pressure ( in mb ) Visibility ( mi km ) Precip ( " mm )
12:15 am 00:15 Clear 15 -9.7 8 -13.6 73 73 SSE 12 19 30.18 1022 10 16.09344 0 0
12:35 am 00:35 Mostly Cloudy 15 -9.5 8 -13.5 73 73 SSE 12 19 30.18 1022 10 16.09344 0 0
12:55 am 00:55 Cloudy 15 -9.3 8 -13.3 73 73 SSE 12 19 30.18 1022 10 16.09344 0 0
1:15 am 01:15 Cloudy 15 -9.2 8 -13.1 74 74 SSE 13 20 30.18 1022 10 16.09344 0 0
1:35 am 01:35 Cloudy 16 -9 9 -13 73 73 SSE 13 20 30.18 1022 10 16.09344 0 0
1:55 am 01:55 Cloudy 16 -8.8 9 -12.7 74 74 SSE 14 22 30.15 1021 10 16.09344 0 0
2:15 am 02:15 Cloudy 17 -8.5 10 -12.5 73 73 SSE 14 22 30.12 1020 10 16.09344 0 0
2:35 am 02:35 Cloudy 17 -8.2 10 -12 74 74 S 16 26 30.09 1019 10 16.09344 0 0
2:55 am 02:55 Cloudy 18 -8 11 -11.8 74 74 S 17 28 30.09 1019 10 16.09344 0 0
3:15 am 03:15 Cloudy 18 -7.7 11 -11.5 74 74 S 13 20 30.09 1019 10 16.09344 0 0
3:35 am 03:35 Mostly Cloudy 19 -7.5 12 -11.3 75 75 S 12 19 30.09 1019 10 16.09344 0 0
3:55 am 03:55 Mostly Cloudy 19 -7.4 12 -11.1 75 75 SSE 5 7 30.09 1019 10 16.09344 0 0
4:15 am 04:15 Partly Cloudy 19 -7.1 12 -11 74 74 S 10 17 30.09 1019 10 16.09344 0 0
4:35 am 04:35 Clear 19 -7.5 12 -11.1 76 76 S 5 7 30.09 1019 10 16.09344 0 0
4:55 am 04:55 Partly Cloudy 18 -8 12 -11.2 78 78 S 9 15 30.09 1019 10 16.09344 0 0
5:15 am 05:15 Mostly Cloudy 19 -7.2 13 -10.6 77 77 S 12 19 30.09 1019 10 16.09344 0 0
5:35 am 05:35 Cloudy 19 -7.2 13 -10.7 76 76 S 9 15 30.09 1019 10 16.09344 0 0
5:55 am 05:55 Cloudy 19 -7.2 13 -10.7 76 76 SSW 10 17 30.09 1019 10 16.09344 0 0
6:15 am 06:15 Mostly Cloudy 18 -7.9 12 -11 79 79 S 6 9 30.09 1019 10 16.09344 0 0
6:35 am 06:35 Clear 17 -8.1 12 -11 80 80 S 7 11 30.09 1019 10 16.09344 0 0
6:55 am 06:55 Clear 17 -8.6 12 -11.2 82 82 S 9 15 30.09 1019 10 16.09344 0 0
7:15 am 07:15 Clear 17 -8.6 12 -11.3 81 81 SSE 5 7 30.09 1019 10 16.09344 0 0
7:35 am 07:35 Clear 15 -9.6 11 -11.8 84 84 S 6 9 30.15 1021 10 16.09344 0 0
7:55 am 07:55 Sunny 14 -10 10 -12 85 85 S 8 13 30.15 1021 10 16.09344 0 0
8:15 am 08:15 Sunny 15 -9.2 11 -11.5 84 84 S 7 11 30.12 1020 10 16.09344 0 0
8:35 am 08:35 Sunny 16 -9 12 -11.3 84 84 S 8 13 30.12 1020 10 16.09344 0 0
8:55 am 08:55 Sunny 17 -8.1 12 -10.9 81 81 S 8 13 30.09 1019 10 16.09344 0 0
9:15 am 09:15 Sunny 19 -7 13 -10.3 78 78 SSW 8 13 30.09 1019 10 16.09344 0 0
9:35 am 09:35 Sunny 21 -6.1 14 -9.8 75 75 SSW 10 17 30.09 1019 10 16.09344 0 0
9:55 am 09:55 Sunny 24 -4.5 16 -9 71 71 SSW 8 13 30.06 1018 10 16.09344 0 0
10:15 am 10:15 Sunny 26 -3.6 17 -8.4 70 70 SW 6 9 30.09 1019 10 16.09344 0 0
10:35 am 10:35 Sunny 27 -2.9 18 -8 68 68 SW 7 11 30.09 1019 10 16.09344 0 0
10:55 am 10:55 Sunny 28 -2 18 -7.6 66 66 SW 9 15 30.06 1018 10 16.09344 0 0
11:15 am 11:15 Sunny 29 -1.8 19 -7.5 65 65 WSW 6 9 30.06 1018 10 16.09344 0 0
11:35 am 11:35 Sunny 32 -0.1 19 -7 60 60 WSW 6 9 30.06 1018 10 16.09344 0 0
11:55 am 11:55 Sunny 32 0.1 20 -6.9 60 60 WSW 5 7 30.06 1018 10 16.09344 0 0
12:15 pm 12:15 Sunny 34 1.1 20 -6.7 56 56 W 6 9 30 1016 10 16.09344 0 0
12:35 pm 12:35 Sunny 36 2.4 20 -6.5 52 52 W 7 11 30 1016 10 16.09344 0 0
12:55 pm 12:55 Sunny 39 3.7 20 -6.5 48 48 W 8 13 29.97 1015 10 16.09344 0 0
1:15 pm 13:15 Sunny 39 4.1 20 -6.5 46 46 W 7 11 29.97 1015 10 16.09344 0 0
1:35 pm 13:35 Sunny 42 5.4 20 -6.8 41 41 W 7 11 29.97 1015 10 16.09344 0 0
1:55 pm 13:55 Sunny 44 6.5 20 -6.6 39 39 W 8 13 29.94 1014 10 16.09344 0 0
2:15 pm 14:15 Sunny 45 7.2 20 -6.5 37 37 WNW 9 15 29.94 1014 10 16.09344 0 0
2:35 pm 14:35 Sunny 46 7.9 20 -6.4 36 36 WNW 8 13 29.94 1014 10 16.09344 0 0
2:55 pm 14:55 Sunny 48 8.9 21 -5.9 35 35 WNW 9 15 29.94 1014 10 16.09344 0 0
3:15 pm 15:15 Sunny 48 8.8 21 -6.1 35 35 W 8 13 29.94 1014 10 16.09344 0 0
3:35 pm 15:35 Sunny 48 8.8 23 -5.2 37 37 WNW 6 9 29.94 1014 10 16.09344 0 0
3:55 pm 15:55 Sunny 50 10 21 -6.1 32 32 WNW 8 13 29.91 1013 10 16.09344 0 0
4:15 pm 16:15 Sunny 51 10.3 22 -5.8 32 32 W 5 7 29.91 1013 10 16.09344 0 0
4:35 pm 16:35 Sunny 50 10.1 22 -5.6 33 33 WNW 5 7 29.91 1013 10 16.09344 0 0
4:55 pm 16:55 Sunny 50 10 22 -5.5 33 33 WNW 3 6 29.91 1013 10 16.09344 0 0
5:15 pm 17:15 Sunny 49 9.3 23 -5.2 36 36 Calm 29.91 1013 10 16.09344 0 0
5:35 pm 17:35 Sunny 47 8.4 22 -5.7 37 37 Calm 29.94 1014 10 16.09344 0 0
6:15 pm 18:15 Clear 43 5.9 21 -6.1 42 42 Calm 29.97 1015 10 16.09344 0 0
6:35 pm 18:35 Clear 40 4.5 22 -5.6 48 48 Calm 30 1016 10 16.09344 0 0
6:55 pm 18:55 Clear 39 3.9 22 -5.5 51 51 Calm 30 1016 10 16.09344 0 0
7:15 pm 19:15 Clear 36 2.4 23 -5.2 58 58 S 5 7 30.03 1017 10 16.09344 0 0
7:35 pm 19:35 Clear 35 1.8 23 -5.2 60 60 Calm 30.03 1017 10 16.09344 0 0
7:55 pm 19:55 Clear 34 1.3 23 -5.2 62 62 Calm 30.06 1018 10 16.09344 0 0
8:15 pm 20:15 Clear 35 1.9 22 -5.5 58 58 Calm 30.06 1018 10 16.09344 0 0
8:35 pm 20:35 Clear 35 1.4 22 -5.5 60 60 S 5 7 30.06 1018 10 16.09344 0 0
8:55 pm 20:55 Clear 35 1.8 22 -5.4 59 59 SSW 6 9 30.06 1018 10 16.09344 0 0
9:15 pm 21:15 Clear 34 1 22 -5.6 62 62 S 6 9 30.06 1018 10 16.09344 0 0
9:35 pm 21:35 Clear 30 -1.1 22 -5.5 72 72 SW 3 6 30.09 1019 10 16.09344 0 0
9:55 pm 21:55 Clear 29 -1.9 21 -5.9 74 74 Calm 30.09 1019 10 16.09344 0 0
10:15 pm 22:15 Clear 31 -0.8 22 -5.4 71 71 Calm 30.09 1019 10 16.09344 0 0
10:35 pm 22:35 Clear 28 -2.2 21 -6.1 75 75 SSW 3 6 30.09 1019 10 16.09344 0 0
10:55 pm 22:55 Clear 30 -1.1 22 -5.7 71 71 S 3 6 30.09 1019 10 16.09344 0 0
11:15 pm 23:15 Clear 29 -1.9 21 -6.3 72 72 SW 5 7 30.09 1019 10 16.09344 0 0
11:35 pm 23:35 Clear 25 -3.7 20 -6.7 80 80 Calm 30.12 1020 10 16.09344 0 0
11:55 pm 23:55 Clear 24 -4.6 19 -7 84 84 Calm 30.12 1020 10 16.09344 0 0

Powered by AerisWeather